Flag for United Kingdom Weather past 2 weeks in Blackpool, England, United Kingdom

Now
54 °F

Scattered clouds.


Feels Like: 49 °F
Forecast: 50 / 56 °F
Wind: 14 mph from West

Location: Blackpool Airport

Current Time: May 22, 2015 at 4:40:45 PM

Latest Report: May 22, 2015 at 4:20 PM


Visibility: 5 mi

Pressure: 30.24 "Hg

Humidity: 94%

Dew point: 52 °F

Location of BlackpoolLocation

Historic Weather in Blackpool — Graph

°F

Blackpool temperature yesterday

Maximum temperature yesterday: 55 °F (at 12:20 PM)
Minimum temperature yesterday: 50 °F (at 6:20 AM)
Average temperature yesterday: 53 °F

Past Weeks' High & Low Weather Summary

 TemperatureHumidityPressure
High59 °F (May 10, 11:20 AM)100% (May 8, 8:50 PM)30.39 "Hg (May 8, 8:50 PM)
Low34 °F (May 19, 2:50 PM)44% (May 14, 12:50 PM)29.45 "Hg (May 19, 6:50 AM)
Average52 °F75%29.99 "Hg
* Reported May 7 2:20 PM — May 22 2:50 PM, Blackpool, Weather by CustomWeather, © 2015

Note: Actual official high and low records may vary slightly from our data, if they occured in-between our weather recording intervals... More about our weather records

Advertising

Blackpool weather history for previous 24 hours

 ConditionsComfort  
Time TempWeatherWind HumidityBarometerVisibility
2:50 PM
Fri, May 22
55 °FDrizzle. Broken clouds.14 mph88%30.24 "Hg5 mi
2:20 PM57 °FBroken clouds.16 mph88%30.24 "HgN/A
1:50 PM57 °FScattered clouds.15 mph88%30.24 "HgN/A
1:20 PM57 °FPassing clouds.16 mph88%30.24 "HgN/A
12:50 PM57 °FBroken clouds.13 mph88%30.24 "HgN/A
12:20 PM57 °FPartly sunny.15 mph88%30.24 "HgN/A
11:50 AM55 °FPartly sunny.15 mph94%30.24 "HgN/A
11:20 AM55 °FPartly sunny.15 mph88%30.24 "HgN/A
10:50 AM55 °FPartly sunny.12 mph88%30.24 "HgN/A
10:20 AM55 °FPartly sunny.10 mph94%30.24 "HgN/A
9:50 AM55 °FPartly sunny.12 mph94%30.24 "HgN/A
9:20 AM55 °FBroken clouds.13 mph94%30.24 "HgN/A
8:50 AM55 °FScattered clouds.12 mphN/A30.24 "HgN/A
8:20 AM54 °FBroken clouds.12 mph94%30.24 "HgN/A
7:50 AM54 °FBroken clouds.10 mph94%30.24 "HgN/A
7:20 AM54 °FBroken clouds.12 mph94%30.24 "HgN/A
6:50 AM54 °FPartly sunny.12 mph94%30.24 "HgN/A
6:20 AM54 °FPartly sunny.13 mph94%30.21 "HgN/A
8:20 PM
Thu, May 21
54 °FSunny.13 mph82%30.27 "Hg10 mi
7:20 PM54 °FSunny.13 mph82%30.27 "Hg10 mi
6:50 PM54 °FSunny.14 mph77%30.27 "Hg10 mi
6:20 PM55 °FSunny.14 mph72%30.27 "Hg10 mi
5:50 PM54 °FPassing clouds.13 mph77%30.27 "HgN/A
5:20 PM55 °FPassing clouds.15 mph72%30.27 "HgN/A
4:50 PM55 °FPassing clouds.15 mph72%30.27 "HgN/A
4:20 PM55 °FPassing clouds.15 mph72%30.27 "HgN/A
Weather by CustomWeather, © 2015

See weather overviewHow to use our weather pages